Location: Newark
(52.3735°N, 16.9806°E)
Time: 04:26:24
(UTC+00:00)

LilacSat-2 - Pass Details

Date: 04 December 2021
Orbit: 511 x 532 km, 97.5° (Epoch: 16 January)

Event Time Altitude Azimuth Distance (km) Brightness Sun altitude
Rises 05:03:50 0° 12° (NNE) 2,688 ? -14.3°
Reaches altitude 10° 05:05:58 10° 11° (N) 1,795 ? -14.0°
Maximum altitude 05:09:50 76° 287° (WNW) 557 ? -13.4°
Drops below altitude 10° 05:13:41 10° 201° (SSW) 1,784 ? -12.9°
Sets 05:15:47 0° 200° (SSW) 2,670 ? -12.6°
